| time (UTC) | temp F | wind direction | speed MPH | gust MPH | rain 1hr in | rain 24hr in | rain mn in | humidity % | barometer mb |
| 20260505022521 | 69 | 0.0 | 2.0 | 0.00 | 0.00 | 0.00 | 50 | 1017.8 | |
| 20260505021521 | 70 | 0.0 | 2.0 | 0.00 | 0.00 | 0.00 | 49 | 1017.7 | |
| 20260505020521 | 70 | 0.0 | 2.0 | 0.00 | 0.00 | 0.00 | 49 | 1017.6 | |
| 20260505015521 | 70 | 0.0 | 3.0 | 0.00 | 0.00 | 0.00 | 48 | 1017.6 | |
| 20260505014521 | 70 | 0.0 | 3.0 | 0.00 | 0.00 | 0.00 | 48 | 1017.4 | |
| 20260505013521 | 71 | 0.0 | 2.0 | 0.00 | 0.00 | 0.00 | 47 | 1017.3 | |
| 20260505012522 | 71 | 45 | 1.0 | 6.0 | 0.00 | 0.00 | 0.00 | 46 | 1017.2 |
| 20260505011521 | 71 | 0.0 | 2.0 | 0.00 | 0.00 | 0.00 | 45 | 1017.1 | |
| 20260505010521 | 71 | 0.0 | 3.0 | 0.00 | 0.00 | 0.00 | 45 | 1017.0 | |
| 20260505005521 | 71 | 0.0 | 1.0 | 0.00 | 0.00 | 0.00 | 45 | 1017.0 | |
| 20260505004521 | 71 | 0.0 | 0.0 | 0.00 | 0.00 | 0.00 | 45 | 1016.7 | |
| 20260505003521 | 71 | 0.0 | 1.0 | 0.00 | 0.00 | 0.00 | 46 | 1016.6 | |
| 20260505002521 | 71 | 0.0 | 0.0 | 0.00 | 0.00 | 0.00 | 47 | 1016.4 | |
| 20260505001521 | 72 | 0.0 | 0.0 | 0.00 | 0.00 | 0.00 | 47 | 1016.3 | |
| 20260505000520 | 74 | 0.0 | 0.0 | 0.00 | 0.00 | 0.00 | 45 | 1016.3 | |
| 20260504235521 | 74 | 0.0 | 1.0 | 0.00 | 0.00 | 0.00 | 40 | 1016.1 | |
| 20260504234521 | 75 | 0.0 | 1.0 | 0.00 | 0.00 | 0.00 | 40 | 1016.1 | |
| 20260504233521 | 76 | 0.0 | 1.0 | 0.00 | 0.00 | 0.00 | 39 | 1016.0 | |
| 20260504232520 | 77 | 0.0 | 1.0 | 0.00 | 0.00 | 0.00 | 39 | 1016.1 | |
| 20260504231538 | 77 | 0.0 | 1.0 | 0.00 | 0.00 | 0.00 | 38 | 1016.1 | |
| 20260504230540 | 78 | 0.0 | 3.0 | 0.00 | 0.00 | 0.00 | 37 | 1016.0 | |
| 20260504225520 | 78 | 0.0 | 2.0 | 0.00 | 0.00 | 0.00 | 37 | 1015.9 | |
| 20260504224521 | 78 | 0.0 | 3.0 | 0.00 | 0.00 | 0.00 | 36 | 1016.0 | |
| 20260504223521 | 78 | 45 | 1.0 | 7.0 | 0.00 | 0.00 | 0.00 | 36 | 1016.1 |
| 20260504222520 | 79 | 0.0 | 2.0 | 0.00 | 0.00 | 0.00 | 36 | 1016.1 | |
| 20260504221522 | 79 | 0.0 | 2.0 | 0.00 | 0.00 | 0.00 | 36 | 1016.0 | |
| 20260504220521 | 79 | 68 | 1.0 | 6.0 | 0.00 | 0.00 | 0.00 | 36 | 1016.1 |
| 20260504215521 | 79 | 45 | 1.0 | 4.0 | 0.00 | 0.00 | 0.00 | 35 | 1016.0 |
| 20260504214520 | 80 | 68 | 1.0 | 3.0 | 0.00 | 0.00 | 0.00 | 36 | 1016.0 |
| 20260504213522 | 80 | 0.0 | 3.0 | 0.00 | 0.00 | 0.00 | 35 | 1016.0 | |
| 20260504212521 | 81 | 0.0 | 2.0 | 0.00 | 0.00 | 0.00 | 35 | 1016.0 | |
| 20260504211521 | 81 | 0.0 | 2.0 | 0.00 | 0.00 | 0.00 | 35 | 1016.0 | |
| 20260504210540 | 82 | 45 | 1.0 | 8.0 | 0.00 | 0.00 | 0.00 | 33 | 1016.1 |
| 20260504205542 | 82 | 45 | 1.0 | 4.0 | 0.00 | 0.00 | 0.00 | 32 | 1016.2 |
| 20260504204522 | 83 | 45 | 1.0 | 9.0 | 0.00 | 0.00 | 0.00 | 32 | 1016.2 |
| 20260504203521 | 82 | 45 | 1.0 | 8.0 | 0.00 | 0.00 | 0.00 | 34 | 1016.2 |
| 20260504202540 | 83 | 68 | 1.0 | 3.0 | 0.00 | 0.00 | 0.00 | 32 | 1016.5 |
| 20260504201710 | 84 | 0.0 | 3.0 | 0.00 | 0.00 | 0.00 | 31 | 1016.6 | |
| 20260504200520 | 83 | 293 | 1.0 | 4.0 | 0.00 | 0.00 | 0.00 | 31 | 1016.6 |
| 20260504195543 | 83 | 45 | 1.0 | 4.0 | 0.00 | 0.00 | 0.00 | 32 | 1016.6 |
| 20260504194522 | 82 | 45 | 1.0 | 5.0 | 0.00 | 0.00 | 0.00 | 34 | 1016.8 |
| 20260504193541 | 83 | 45 | 1.0 | 3.0 | 0.00 | 0.00 | 0.00 | 31 | 1017.0 |
| 20260504192520 | 83 | 315 | 1.0 | 6.0 | 0.00 | 0.00 | 0.00 | 31 | 1017.1 |
| 20260504191542 | 82 | 45 | 1.0 | 2.0 | 0.00 | 0.00 | 0.00 | 33 | 1017.4 |
| 20260504190522 | 82 | 45 | 1.0 | 5.0 | 0.00 | 0.00 | 0.00 | 31 | 1017.3 |
| 20260504185520 | 82 | 23 | 1.0 | 7.0 | 0.00 | 0.00 | 0.00 | 30 | 1017.4 |
| 20260504184520 | 81 | 23 | 1.0 | 5.0 | 0.00 | 0.00 | 0.00 | 30 | 1017.4 |
| 20260504183522 | 82 | 293 | 1.0 | 2.0 | 0.00 | 0.00 | 0.00 | 31 | 1017.4 |
| 20260504182522 | 80 | 45 | 1.0 | 5.0 | 0.00 | 0.00 | 0.00 | 32 | 1017.6 |
| 20260504181522 | 80 | 248 | 2.0 | 7.0 | 0.00 | 0.00 | 0.00 | 32 | 1017.8 |
| 20260504180522 | 80 | 293 | 1.0 | 5.0 | 0.00 | 0.00 | 0.00 | 32 | 1017.8 |
| 20260504175523 | 79 | 45 | 2.0 | 5.0 | 0.00 | 0.00 | 0.00 | 32 | 1017.9 |
| 20260504174522 | 80 | 68 | 1.0 | 6.0 | 0.00 | 0.00 | 0.00 | 33 | 1018.0 |
| 20260504173522 | 80 | 45 | 1.0 | 4.0 | 0.00 | 0.00 | 0.00 | 34 | 1017.9 |
| 20260504172522 | 80 | 45 | 1.0 | 6.0 | 0.00 | 0.00 | 0.00 | 33 | 1017.9 |
| 20260504171522 | 80 | 338 | 1.0 | 4.0 | 0.00 | 0.00 | 0.00 | 31 | 1018.3 |
| 20260504170542 | 80 | 45 | 1.0 | 3.0 | 0.00 | 0.00 | 0.00 | 32 | 1018.5 |
| 20260504150521 | 74 | 0.0 | 2.0 | 0.00 | 0.00 | 0.00 | 50 | 1019.5 | |
| 20260504140522 | 70 | 0.0 | 2.0 | 0.00 | 0.00 | 0.00 | 57 | 1020.0 | |
| 20260504130522 | 63 | 0.0 | 1.0 | 0.00 | 0.00 | 0.00 | 66 | 1019.8 | |
| 20260504110224 | 45 | 0.0 | 0.0 | 0.00 | 0.00 | 0.00 | 87 | 1020.4 | |
| 20260504100521 | 45 | 0.0 | 0.0 | 0.00 | 0.00 | 0.00 | 85 | 1019.7 | |
| 20260504081522 | 46 | 0.0 | 0.0 | 0.00 | 0.00 | 0.00 | 77 | 1019.9 | |
| 20260504080542 | 47 | 0.0 | 0.0 | 0.00 | 0.00 | 0.00 | 76 | 1019.9 | |
| 20260504050542 | 49 | 0.0 | 0.0 | 0.00 | 0.00 | 0.00 | 66 | 1020.1 | |
| 20260504045542 | 50 | 0.0 | 0.0 | 0.00 | 0.00 | 0.00 | 64 | 1020.1 | |
| 20260504045042 | 50 | 0.0 | 0.0 | 0.00 | 0.00 | 0.00 | 64 | 1020.0 | |
| 20260504044022 | 50 | 0.0 | 0.0 | 0.00 | 0.00 | 0.00 | 64 | 1019.9 | |
| 20260504043021 | 50 | 0.0 | 0.0 | 0.00 | 0.00 | 0.00 | 64 | 1020.2 | |
| 20260504042022 | 50 | 0.0 | 0.0 | 0.00 | 0.00 | 0.00 | 63 | 1020.1 | |
| 20260504041022 | 50 | 0.0 | 0.0 | 0.00 | 0.00 | 0.00 | 64 | 1020.0 | |
| 20260504040024 | 50 | 0.0 | 0.0 | 0.00 | 0.00 | 0.00 | 64 | 1020.1 | |
| 20260504035021 | 50 | 0.0 | 0.0 | 0.00 | 0.00 | 0.00 | 63 | 1020.1 | |
| 20260504034020 | 51 | 0.0 | 0.0 | 0.00 | 0.00 | 0.00 | 62 | 1020.1 | |
| 20260504033020 | 51 | 0.0 | 0.0 | 0.00 | 0.00 | 0.00 | 61 | 1020.1 | |
| 20260504032021 | 51 | 0.0 | 0.0 | 0.00 | 0.00 | 0.00 | 62 | 1020.1 | |
| 20260504031020 | 51 | 0.0 | 0.0 | 0.00 | 0.00 | 0.00 | 62 | 1020.0 | |
| 20260504030020 | 51 | 0.0 | 0.0 | 0.00 | 0.00 | 0.00 | 62 | 1019.9 | |
| 20260504025021 | 51 | 0.0 | 0.0 | 0.00 | 0.00 | 0.00 | 61 | 1019.9 | |
| 20260504024021 | 52 | 0.0 | 0.0 | 0.00 | 0.00 | 0.00 | 60 | 1019.9 | |
| 20260504023020 | 52 | 0.0 | 0.0 | 0.00 | 0.00 | 0.00 | 59 | 1019.8 |